ZIYUAN 1-02C (ZY 1-02C)

Last updated on Tue Sep 16 2025 00:02:30 GMT+0000 (Coordinated Universal Time)

1 38038U 11079A 25258.67034168 .00000388 00000+0 14310-3 0 9997 2 38038 98.4447 326.2631 0007335 56.1349 62.0519 14.37863509719757
UTC large
Height (km)
Speed (km/s)
/
Latitude / Longitude
Inclination (degrees)
Orbital Period (minutes)
Azimuth
Elevation
Range (km)
Doppler Factor

Next 0 passes for location: London (51.5072 / 0.1276)

Sorry there are no passes over London.